AVET LIFESCIENCES PRIVATE LIMITED
AVET LIFESCIENCES PRIVATE LIMITED's Shipments Over Time
Supply Ratings
Shipment Reliability and Frequency Volume of Goods
Avg. Shipments per Month: 5.71 Average TEU per month: 9.88
Active Months: 10 Average TEU per Shipment: 1.48
Shipment Frequency Std. Dev.: 4.66
Shipments By Companies
Company Name Shipments
NORTHSTAR DISTRIBUTION CENTER 8912 221 shipments
AVET PHARMACEUTICALS INC 18 shipments
EVERSANA LIFE SCIENCE SERVICES LLC 15 shipments
ATHENEX PHARMACEUTICAL DIVISON 3 shipments
AVENACY LLC 3 shipments
NORTHSTAR DISTRIBUTION CENTER 2 shipments
ATHENEX PHARMACEUTICAL DIVISION LLC 1 shipments
AVENACY INC 1 shipments
Shipments By HS Code
HS Code Shipments
300490 Medicaments; consisting of mixed or unmixed products n.e.c. in heading no. 3004, for therapeutic or prophylactic uses, packaged for retail sale 214 shipments
520300.0 Cotton, carded or combed 32 shipments
902230.0 X-ray, alpha, beta, gamma radiation apparatus; x-ray tubes, x-ray generators, high tension generators, control panels and desks, screens, examination or treatment tables, chairs and the like 6 shipments
848041.0 Moulding boxes for metal foundry, moulding patterns, moulds for metals (excluding ingot moulds), metal carbides, glass, mineral materials, rubber or plastics 3 shipments
961100.0 Stamps; date, numbering, sealing stamps and the like (including devices for printing or embossing labels), designed for operating by hand; hand operated composing sticks and printing sets 3 shipments
382312.0 Industrial monocarboxylic fatty acids; acid oils from refining; industrial fatty alcohols 2 shipments
300049 1 shipments
300230 Vaccines; for veterinary medicine 1 shipments
382312 Industrial monocarboxylic fatty acids, acid oils from refining; oleic acid 1 shipments
920510 Musical instruments; brass-wind (e.g. trumpets), other than fairground organs and mechanical street organs 1 shipments
to show market analysis.
Similar Suppliers
to see more.
Latest Shipments
Arrival Date Bill Of Lading Consignee Weight HS Code Description
2026-03-30 EXDO613494908 NORTHSTAR DISTRIBUTION CENTER 8912 3015.0 kg 848041.0 FUROSEMIDE INJECTION HTS:
2026-03-20 CHSL542662563BOM AVENACY LLC 7718.0 kg 961100.0 TOTAL PALLETS NOS. TOTAL NO OF SHIPPER PHARMACEUTICAL MEDICINES PROPOFOL INJ MG MLX AVENACY SN BATCH NO. ESA MFG. DATE DEC EXP. DATE NOV HS CODE INVOCE NO. EXP AVET - DATE -JAN- SB NO. DT. .. NET WEIGHT . KGS TEMPERATURE SET DEG C HUMIDITY VENTILATION CLOSED
2026-03-20 CHSL542647951BOM AVENACY LLC 7787.0 kg 961100.0 TOTAL PALLETS NOS. TOTAL NO OF SHIPPER PHARMACEUTICAL MEDICINES PROPOFOL INJ MG MLX AVENACY SN BATCH NO. ESA MFG. DATE JAN EXP. DATE DEC ISOPROTERE.HCLINJ. .MG MLX AVENACYSN BATCH NO. ESB MFG. DATE JAN EXP. DATE DEC HS CODE INVOCE NO. EXP AVET - DATE -JAN- SB NO. DT. .. NET WEIGHT
2026-02-28 EXDO6630058693 NORTHSTAR DISTRIBUTION CENTER 8912 7661.0 kg 520300.0 PROPOFOL INJ HTS:
2026-02-17 CHSL539733027BOM AVENACY LLC 7719.0 kg 961100.0 TOTAL PALLET NOS. TOTAL NO OF SHIPPER QUANTITY PACKS PHARMACEUTICAL MEDICINES PROPOFOL INJ MG MLX AVENACY SN BATCH NO. ESA MFG. DATE DEC EXP. DATE NOV HS CODE INVOICE NO. EXP AVET - DATE -DEC- SB NO. DT. .. DATA LOGGER NO. EFL DATA LOGGER NO. EFL DATA LOG
2026-02-12 EXDO6630058095 NORTHSTAR DISTRIBUTION CENTER 8912 5965.0 kg 520300.0 PROPOF INJ EMUL% HTS:
2026-02-12 EXDO6630058096 NORTHSTAR DISTRIBUTION CENTER 8912 7522.0 kg 520300.0 PROPOFOL INJ EMUL% HTS:
2026-02-12 EXDO6630058097 NORTHSTAR DISTRIBUTION CENTER 8912 7264.0 kg 520300.0 PROPOFOL INJ EMUL% HTS:
2026-02-07 EXDO6630058098 NORTHSTAR DISTRIBUTION CENTER 8912 7270.0 kg 520300.0 PROPOFOL INJ HTS:
2026-02-07 EXDO6630058263 NORTHSTAR DISTRIBUTION CENTER 8912 7524.0 kg 520300.0 PROPOFOL INJ HTS:
2026-02-07 EXDO6630058099 NORTHSTAR DISTRIBUTION CENTER 8912 7324.0 kg 520300.0 PROPOFOL INJECTABLE HTS:
2026-01-16 EXDO6630057766 NORTHSTAR DISTRIBUTION CENTER 8912 3719.0 kg 520300.0 PROPOF INJ HTS:
2026-01-16 EXDO6630057765 NORTHSTAR DISTRIBUTION CENTER 8912 5924.0 kg 520300.0 PROPOF INJ HTS:
2026-01-16 EXDO6630057767 NORTHSTAR DISTRIBUTION CENTER 8912 5943.0 kg 520300.0 PROPOF INJ HTS:
2026-01-16 EXDO6630057764 NORTHSTAR DISTRIBUTION CENTER 8912 6181.0 kg 520300.0 PROPOFOL INJ HTS:
2026-01-12 EXDO6630057548 EVERSANA LIFE SCIENCE SERVICES LLC 2630.0 kg 382312.0 TRANEXAMIC ACID INJ HTS:
2026-01-12 EXDO6630057626 NORTHSTAR DISTRIBUTION CENTER 8912 6168.0 kg 520300.0 PROPOFOL INJ EMUL % HTS:
2025-12-30 EXDO613493713 NORTHSTAR DISTRIBUTION CENTER 8912 3076.0 kg 848041.0 FUROSEMIDE INJECTION USP MG/ ML HTS:
2025-12-16 EXDO6630057275 NORTHSTAR DISTRIBUTION CENTER 8912 8121.0 kg 520300.0 PROPOFOL INJ EMUL % HTS:
2025-12-02 EXDO6630057160 NORTHSTAR DISTRIBUTION CENTER 8912 7549.0 kg 520300.0 PROPOFOL INJ HTS:
2025-12-02 EXDO6630057161 NORTHSTAR DISTRIBUTION CENTER 8912 7270.0 kg 520300.0 PROPOFOL INJ HTS:
2025-12-02 EXDO6630057162 NORTHSTAR DISTRIBUTION CENTER 8912 7249.0 kg 520300.0 PROPOFOL INJ HTS:
2025-11-21 EXDO613493346 NORTHSTAR DISTRIBUTION CENTER 8912 5646.0 kg 848041.0 FUROSEMIDE INJECTION USP MG/ ML HTS:
2025-11-16 EXDO6630056838 NORTHSTAR DISTRIBUTION CENTER 8912 7223.0 kg 520300.0 PROPOFOL INJ HTS:
2025-11-16 EXDO6630056837 NORTHSTAR DISTRIBUTION CENTER 8912 7274.0 kg 520300.0 PROPOFOL INJ HTS:
2025-11-16 EXDO6630056839 NORTHSTAR DISTRIBUTION CENTER 8912 7251.0 kg 520300.0 PROPOFOL INJ HTS:
2025-11-11 EXDO6630056774 NORTHSTAR DISTRIBUTION CENTER 8912 6207.0 kg 520300.0 PROPOFOL INJ HTS:
2025-11-11 EXDO6630056841 NORTHSTAR DISTRIBUTION CENTER 8912 7239.0 kg 520300.0 PROPOFOL INJ HTS:
2025-11-11 EXDO6630056959 EVERSANA LIFE SCIENCE SERVICES LLC 3942.0 kg 382312.0 TRANEXAMIC ACID HTS:
2025-11-11 EXDO6630056958 NORTHSTAR DISTRIBUTION CENTER 8912 5978.0 kg 520300.0 PROPOF INJ HTS:
2025-10-25 EXDO6630056772 NORTHSTAR DISTRIBUTION CENTER 8912 7260.0 kg 520300.0 PROPOF INJ HTS:
2025-10-25 EXDO6630056773 NORTHSTAR DISTRIBUTION CENTER 8912 6006.0 kg 520300.0 PROPOF INJ HTS:
2025-10-19 EXDO6630056422 NORTHSTAR DISTRIBUTION CENTER 8912 7512.0 kg 902230.0 PROPOFOL INJ EMUL %( MG/ ML)X NS SN HTS:
2025-10-19 EXDO6630056423 NORTHSTAR DISTRIBUTION CENTER 8912 7519.0 kg 902230.0 PROPOFOL INJ EMUL %( MG/ ML)X NS SN HTS:
2025-10-18 EXDO6630056519 NORTHSTAR DISTRIBUTION CENTER 8912 7241.0 kg 902230.0 PROPOFOL INJ EMUL %( MG/ ML)X NS SN HTS:
2025-10-18 EXDO6630056616 NORTHSTAR DISTRIBUTION CENTER 8912 7157.0 kg 902230.0 PROPOFOL INJ EMUL %( MG/ ML)X NS SN HTS:
2025-10-18 EXDO6630056520 NORTHSTAR DISTRIBUTION CENTER 8912 7205.0 kg 902230.0 PROPOFOL INJ EMUL %( MG/ ML)X NS SN HTS:
2025-10-18 EXDO6630056617 NORTHSTAR DISTRIBUTION CENTER 8912 7485.0 kg 902230.0 PROPOFOL INJ EMUL %( MG/ ML)X NS SN HTS:
2025-10-01 EXDO6630056265 NORTHSTAR DISTRIBUTION CENTER 8912 5890.0 kg 520300.0 PROPOF INJ HTS:
2025-10-01 EXDO6630056317 NORTHSTAR DISTRIBUTION CENTER 8912 7425.0 kg 520300.0 PROPOFOL INJ HTS:
2025-09-16 EXDO6630056093 NORTHSTAR DISTRIBUTION CENTER 8912 5978.0 kg 520300.0 PHARMA HTS:
2025-09-16 EXDO6630056092 NORTHSTAR DISTRIBUTION CENTER 8912 5968.0 kg 520300.0 PHARMA HTS:
2025-09-03 EXDO6630055959 NORTHSTAR DISTRIBUTION CENTER 8912 6003.0 kg 520300.0 PHARMA HTS:
2025-09-03 EXDO6630055960 NORTHSTAR DISTRIBUTION CENTER 8912 5499.0 kg 520300.0 PHARMA HTS:
2025-09-03 EXDO6630055972 NORTHSTAR DISTRIBUTION CENTER 8912 5973.0 kg 520300.0 PROPOF INJ HTS:
2025-09-03 EXDO6630055971 NORTHSTAR DISTRIBUTION CENTER 8912 5968.0 kg 520300.0 PROPOF INJ HTS:
2025-08-15 EXDO6630055779 NORTHSTAR DISTRIBUTION CENTER 8912 7272.0 kg 300490 PHARMA HTS: 30049099
2025-08-15 EXDO6630055713 NORTHSTAR DISTRIBUTION CENTER 8912 7229.0 kg 300490 PHARMA HTS: 300490
2025-08-15 EXDO6630055714 NORTHSTAR DISTRIBUTION CENTER 8912 7248.0 kg 300490 PHARMA HTS: 300490
2025-08-11 EXDO6630055522 NORTHSTAR DISTRIBUTION CENTER 8912 4452.0 kg 300490 PROPOF INJ EMUL1 HTS: 300490
Contact information Request
to request contact information.
Other address
A-402 4TH FLOOR GANGA OSIAN SQUARE SURVEY NO 249/250 WAKAD MAHARASHTRA 411057 MH IN
T-184 M I D C BHOSARI PUNE MAHARASHTRA 411026 MH IN
A-402 4TH FLOOR GANGA OSIAN SQUARE SURVEY NO 249/250 WAKAD MAHARASHTRA 411057 MH IN
A-402 4TH FLOOR GANGA OSIAN SQUARE SURVEY NO 249/250 WAKAD MAHARASHTRA 411057 MH IN
A-402 4TH FLOOR GANGA OSIAN SQUAR E SURVEY NO 249/250 TAL MULSHI WAK AD
A-402 4TH FLOOR GANGA OSIAN SQUAR SURVEY NO 249 250 TAL MULSHI WAK
A-402 4TH FLOOR GANGA OSIAN SQUARE SURVEY NO 249/250
T-184 M I D C BHOSARI PUNE MAHARASHTRA 411026
A-402 4TH FLOOR GANGA OSIAN SQUARE WAKAD PUNE MH 411057